| time (UTC) | temp F | wind direction | speed knots | gust knots | rain 1hr in | rain 24hr in | rain mn in | humidity % | barometer mb |
| 20260906184008 | 89 | 82 | 1.7 | 6.1 | 0.00 | 0.04 | 0.04 | 65 | 1015.1 |
| 20260906183505 | 88 | 144 | 2.6 | 6.1 | 0.00 | 0.04 | 0.04 | 66 | 1015.1 |
| 20260906183016 | 88 | 244 | 0.9 | 3.5 | 0.00 | 0.04 | 0.04 | 65 | 1015.3 |
| 20260906182510 | 88 | 343 | 0.0 | 2.6 | 0.00 | 0.04 | 0.04 | 69 | 1015.4 |
| 20260906182013 | 88 | 133 | 0.9 | 2.6 | 0.00 | 0.04 | 0.04 | 67 | 1015.4 |
| 20260906181508 | 88 | 205 | 0.9 | 2.6 | 0.00 | 0.04 | 0.04 | 66 | 1015.4 |
| 20260906181010 | 88 | 65 | 0.9 | 3.5 | 0.00 | 0.04 | 0.04 | 66 | 1015.4 |
| 20260906180513 | 87 | 184 | 0.9 | 3.5 | 0.00 | 0.04 | 0.04 | 68 | 1015.4 |
| 20260906180004 | 87 | 196 | 0.9 | 3.5 | 0.00 | 0.04 | 0.04 | 66 | 1015.4 |
| 20260906175507 | 87 | 279 | 0.9 | 3.5 | 0.00 | 0.04 | 0.04 | 67 | 1015.4 |
| 20260906175005 | 87 | 229 | 1.7 | 3.5 | 0.00 | 0.04 | 0.04 | 69 | 1015.5 |
| 20260906174509 | 86 | 199 | 0.9 | 3.5 | 0.00 | 0.04 | 0.04 | 71 | 1015.5 |
| 20260906174003 | 85 | 216 | 1.7 | 2.6 | 0.00 | 0.04 | 0.04 | 71 | 1015.6 |
| 20260906173508 | 84 | 163 | 1.7 | 3.5 | 0.00 | 0.04 | 0.04 | 73 | 1015.8 |
| 20260906173014 | 85 | 246 | 1.7 | 4.3 | 0.00 | 0.04 | 0.04 | 72 | 1015.7 |
| 20260906172502 | 85 | 59 | 0.9 | 4.3 | 0.00 | 0.04 | 0.04 | 74 | 1015.7 |
| 20260906172005 | 84 | 166 | 0.9 | 4.3 | 0.00 | 0.04 | 0.04 | 77 | 1015.8 |
| 20260906171520 | 84 | 196 | 1.7 | 4.3 | 0.00 | 0.04 | 0.04 | 76 | 1016.0 |
| 20260906171009 | 83 | 226 | 0.9 | 4.3 | 0.00 | 0.04 | 0.04 | 78 | 1016.2 |
| 20260906170506 | 83 | 246 | 0.0 | 4.3 | 0.00 | 0.04 | 0.04 | 79 | 1016.1 |
| 20260906170016 | 83 | 214 | 0.9 | 1.7 | 0.00 | 0.04 | 0.04 | 82 | 1016.1 |
| 20260906165509 | 82 | 205 | 0.9 | 1.7 | 0.00 | 0.04 | 0.04 | 81 | 1016.2 |
| 20260906165016 | 82 | 165 | 0.0 | 1.7 | 0.00 | 0.04 | 0.04 | 82 | 1016.3 |
| 20260906164511 | 82 | 82 | 0.0 | 2.6 | 0.00 | 0.04 | 0.04 | 86 | 1016.3 |
| 20260906164006 | 81 | 82 | 1.7 | 2.6 | 0.00 | 0.04 | 0.04 | 85 | 1016.3 |
| 20260906163506 | 80 | 186 | 0.0 | 1.7 | 0.01 | 0.04 | 0.04 | 87 | 1016.5 |
| 20260906163010 | 79 | 198 | 0.0 | 1.7 | 0.01 | 0.04 | 0.04 | 91 | 1016.4 |
| 20260906162508 | 78 | 201 | 0.9 | 0.9 | 0.01 | 0.04 | 0.04 | 89 | 1016.7 |
| 20260906162009 | 77 | 200 | 0.0 | 0.9 | 0.02 | 0.04 | 0.04 | 90 | 1016.6 |
| 20260906161517 | 77 | 207 | 0.0 | 0.9 | 0.04 | 0.04 | 0.04 | 90 | 1016.5 |
| 20260906161011 | 76 | 221 | 0.0 | 1.7 | 0.04 | 0.04 | 0.04 | 88 | 1016.7 |
| 20260906160511 | 76 | 221 | 0.0 | 1.7 | 0.04 | 0.04 | 0.04 | 90 | 1016.7 |
| 20260906160024 | 76 | 221 | 0.0 | 0.9 | 0.04 | 0.04 | 0.04 | 89 | 1016.7 |
| 20260906155505 | 76 | 221 | 0.0 | 0.9 | 0.04 | 0.04 | 0.04 | 89 | 1016.8 |
| 20260906155012 | 76 | 202 | 0.0 | 0.9 | 0.04 | 0.04 | 0.04 | 91 | 1016.7 |
| 20260906154526 | 75 | 202 | 0.0 | 1.7 | 0.04 | 0.04 | 0.04 | 90 | 1016.7 |
| 20260906154012 | 74 | 202 | 0.0 | 1.7 | 0.04 | 0.04 | 0.04 | 89 | 1016.7 |
| 20260906153508 | 74 | 128 | 0.0 | 1.7 | 0.03 | 0.03 | 0.03 | 88 | 1016.6 |
| 20260906153010 | 74 | 128 | 0.0 | 1.7 | 0.03 | 0.03 | 0.03 | 85 | 1016.5 |
| 20260906152510 | 76 | 128 | 0.0 | 7.0 | 0.03 | 0.03 | 0.03 | 81 | 1016.5 |
| 20260906152007 | 78 | 101 | 1.7 | 7.0 | 0.02 | 0.02 | 0.02 | 80 | 1016.7 |
| 20260906151514 | 80 | 298 | 1.7 | 5.2 | 0.00 | 0.00 | 0.00 | 81 | 1016.9 |
| 20260906151011 | 80 | 159 | 0.9 | 5.2 | 0.00 | 0.00 | 0.00 | 80 | 1017.0 |
| 20260906150511 | 80 | 300 | 0.9 | 5.2 | 0.00 | 0.00 | 0.00 | 80 | 1016.7 |
| 20260906150022 | 81 | 212 | 0.0 | 5.2 | 0.00 | 0.00 | 0.00 | 79 | 1016.3 |
| 20260906145506 | 81 | 252 | 1.7 | 5.2 | 0.00 | 0.00 | 0.00 | 79 | 1016.2 |
| 20260906145015 | 81 | 236 | 0.9 | 5.2 | 0.00 | 0.00 | 0.00 | 79 | 1016.0 |
| 20260906144511 | 81 | 74 | 1.7 | 4.3 | 0.00 | 0.00 | 0.00 | 79 | 1016.0 |
| 20260906144015 | 81 | 92 | 0.9 | 3.5 | 0.00 | 0.00 | 0.00 | 79 | 1015.9 |
| 20260906143516 | 80 | 63 | 0.9 | 4.3 | 0.00 | 0.00 | 0.00 | 79 | 1015.9 |
| 20260906143026 | 80 | 181 | 0.0 | 4.3 | 0.00 | 0.00 | 0.00 | 80 | 1015.9 |
| 20260906142509 | 80 | 51 | 0.0 | 6.1 | 0.00 | 0.00 | 0.00 | 80 | 1016.0 |
| 20260906142015 | 80 | 121 | 1.7 | 6.1 | 0.00 | 0.00 | 0.00 | 80 | 1016.0 |
| 20260906141511 | 80 | 267 | 0.9 | 5.2 | 0.00 | 0.00 | 0.00 | 80 | 1016.0 |
| 20260906141008 | 80 | 271 | 0.9 | 3.5 | 0.00 | 0.00 | 0.00 | 80 | 1016.1 |
| 20260906140512 | 80 | 215 | 0.9 | 2.6 | 0.00 | 0.00 | 0.00 | 81 | 1016.1 |
| 20260906140027 | 80 | 98 | 0.9 | 6.1 | 0.00 | 0.00 | 0.00 | 81 | 1016.0 |
| 20260906135515 | 80 | 96 | 0.9 | 6.1 | 0.00 | 0.00 | 0.00 | 80 | 1016.1 |
| 20260906135010 | 79 | 198 | 0.9 | 2.6 | 0.00 | 0.00 | 0.00 | 81 | 1016.2 |
| 20260906134523 | 79 | 69 | 0.0 | 2.6 | 0.00 | 0.00 | 0.00 | 81 | 1016.1 |
| 20260906134016 | 79 | 142 | 0.9 | 3.5 | 0.00 | 0.00 | 0.00 | 81 | 1016.2 |
| 20260906133509 | 79 | 72 | 2.6 | 5.2 | 0.00 | 0.00 | 0.00 | 80 | 1016.1 |
| 20260906133017 | 80 | 114 | 1.7 | 5.2 | 0.00 | 0.00 | 0.00 | 80 | 1016.1 |
| 20260906132517 | 80 | 112 | 0.9 | 3.5 | 0.00 | 0.00 | 0.00 | 80 | 1016.0 |
| 20260906132019 | 80 | 178 | 0.9 | 5.2 | 0.00 | 0.00 | 0.00 | 80 | 1016.0 |
| 20260906131540 | 80 | 47 | 1.7 | 6.1 | 0.00 | 0.00 | 0.00 | 80 | 1016.0 |
| 20260906131015 | 79 | 98 | 2.6 | 6.1 | 0.00 | 0.00 | 0.00 | 80 | 1015.9 |
| 20260906130509 | 79 | 111 | 1.7 | 5.2 | 0.00 | 0.00 | 0.00 | 81 | 1016.0 |
| 20260906130026 | 79 | 103 | 2.6 | 5.2 | 0.00 | 0.00 | 0.00 | 81 | 1016.0 |
| 20260906125510 | 78 | 96 | 0.0 | 1.7 | 0.00 | 0.00 | 0.00 | 82 | 1016.0 |
| 20260906125010 | 78 | 92 | 0.0 | 2.6 | 0.00 | 0.00 | 0.00 | 83 | 1015.9 |
| 20260906124520 | 78 | 92 | 0.0 | 2.6 | 0.00 | 0.00 | 0.00 | 83 | 1015.9 |
| 20260906124008 | 78 | 64 | 0.0 | 1.7 | 0.00 | 0.00 | 0.00 | 83 | 1015.9 |
| 20260906123514 | 77 | 76 | 0.0 | 1.7 | 0.00 | 0.00 | 0.00 | 83 | 1015.8 |
| 20260906123020 | 77 | 76 | 0.0 | 1.7 | 0.00 | 0.00 | 0.00 | 83 | 1015.7 |
| 20260906122517 | 77 | 98 | 0.0 | 1.7 | 0.00 | 0.00 | 0.00 | 83 | 1015.6 |
| 20260906122012 | 77 | 98 | 0.0 | 1.7 | 0.00 | 0.00 | 0.00 | 83 | 1015.5 |
| 20260906121517 | 77 | 98 | 0.0 | 2.6 | 0.00 | 0.00 | 0.00 | 83 | 1015.5 |
| 20260906121017 | 77 | 96 | 0.9 | 2.6 | 0.00 | 0.00 | 0.00 | 83 | 1015.5 |
| 20260906120514 | 77 | 132 | 0.0 | 2.6 | 0.00 | 0.00 | 0.00 | 84 | 1015.4 |
| 20260906120018 | 77 | 212 | 0.9 | 2.6 | 0.00 | 0.00 | 0.00 | 84 | 1015.5 |
| 20260906115515 | 77 | 256 | 0.0 | 1.7 | 0.00 | 0.00 | 0.00 | 84 | 1015.3 |
| 20260906115008 | 77 | 256 | 0.0 | 3.5 | 0.00 | 0.00 | 0.00 | 84 | 1015.2 |
| 20260906114510 | 77 | 111 | 0.0 | 3.5 | 0.00 | 0.00 | 0.00 | 83 | 1015.2 |
| 20260906114003 | 77 | 90 | 0.0 | 3.5 | 0.00 | 0.00 | 0.00 | 83 | 1015.1 |
| 20260906113503 | 77 | 97 | 0.0 | 3.5 | 0.00 | 0.00 | 0.00 | 83 | 1015.1 |
| 20260906113004 | 77 | 103 | 0.9 | 1.7 | 0.00 | 0.00 | 0.00 | 83 | 1014.9 |
| 20260906112504 | 77 | 117 | 0.0 | 1.7 | 0.00 | 0.00 | 0.00 | 83 | 1015.0 |
| 20260906112004 | 77 | 118 | 0.0 | 1.7 | 0.00 | 0.00 | 0.00 | 83 | 1015.0 |
| 20260906111506 | 77 | 121 | 0.0 | 1.7 | 0.00 | 0.00 | 0.00 | 83 | 1015.0 |
| 20260906111005 | 77 | 159 | 0.0 | 0.9 | 0.00 | 0.00 | 0.00 | 83 | 1015.2 |
| 20260906110502 | 77 | 192 | 0.0 | 1.7 | 0.00 | 0.00 | 0.00 | 83 | 1015.3 |
| 20260906110004 | 77 | 192 | 0.0 | 1.7 | 0.00 | 0.00 | 0.00 | 83 | 1015.2 |
| 20260906105507 | 77 | 192 | 0.0 | 0.0 | 0.00 | 0.00 | 0.00 | 83 | 1015.2 |
| 20260906105007 | 77 | 192 | 0.0 | 1.7 | 0.00 | 0.00 | 0.00 | 83 | 1015.1 |
| 20260906104504 | 77 | 192 | 0.0 | 1.7 | 0.00 | 0.00 | 0.00 | 83 | 1015.0 |
| 20260906104006 | 77 | 98 | 0.0 | 1.7 | 0.00 | 0.00 | 0.00 | 82 | 1014.9 |
| 20260906103503 | 77 | 98 | 0.0 | 1.7 | 0.00 | 0.00 | 0.00 | 82 | 1014.9 |
| 20260906103004 | 77 | 98 | 0.0 | 1.7 | 0.00 | 0.00 | 0.00 | 82 | 1014.9 |
| 20260906102504 | 77 | 96 | 0.0 | 1.7 | 0.00 | 0.00 | 0.00 | 82 | 1014.7 |
| 20260906102004 | 77 | 96 | 0.0 | 1.7 | 0.00 | 0.00 | 0.00 | 82 | 1014.7 |
| 20260906101504 | 77 | 96 | 0.0 | 1.7 | 0.00 | 0.00 | 0.00 | 82 | 1014.7 |
| 20260906101005 | 77 | 96 | 0.0 | 0.9 | 0.00 | 0.00 | 0.00 | 82 | 1014.7 |
| 20260906100505 | 77 | 96 | 0.0 | 0.0 | 0.00 | 0.00 | 0.00 | 82 | 1014.7 |
| 20260906100010 | 77 | 96 | 0.0 | 0.0 | 0.00 | 0.00 | 0.00 | 82 | 1014.7 |
| 20260906095503 | 77 | 96 | 0.0 | 0.9 | 0.00 | 0.00 | 0.00 | 82 | 1014.7 |
| 20260906095004 | 78 | 96 | 0.0 | 1.7 | 0.00 | 0.00 | 0.00 | 82 | 1014.7 |
| 20260906094533 | 77 | 96 | 0.0 | 1.7 | 0.00 | 0.00 | 0.00 | 82 | 1014.6 |
| 20260906094004 | 78 | 96 | 0.0 | 1.7 | 0.00 | 0.00 | 0.00 | 82 | 1014.7 |
| 20260906093504 | 78 | 96 | 0.0 | 1.7 | 0.00 | 0.00 | 0.00 | 82 | 1014.7 |
| 20260906093008 | 78 | 130 | 0.0 | 1.7 | 0.00 | 0.00 | 0.00 | 82 | 1014.6 |
| 20260906092513 | 78 | 226 | 0.0 | 1.7 | 0.00 | 0.00 | 0.00 | 82 | 1014.7 |
| 20260906092012 | 78 | 225 | 0.0 | 1.7 | 0.00 | 0.00 | 0.00 | 82 | 1014.7 |
| 20260906091509 | 78 | 226 | 0.0 | 1.7 | 0.00 | 0.00 | 0.00 | 82 | 1014.7 |
| 20260906091004 | 78 | 226 | 0.0 | 1.7 | 0.00 | 0.00 | 0.00 | 82 | 1014.7 |
| 20260906090503 | 78 | 225 | 0.0 | 1.7 | 0.00 | 0.00 | 0.00 | 82 | 1014.8 |
| 20260906090007 | 78 | 225 | 0.0 | 1.7 | 0.00 | 0.00 | 0.00 | 81 | 1014.8 |
| 20260906085504 | 78 | 225 | 0.0 | 1.7 | 0.00 | 0.00 | 0.00 | 81 | 1014.8 |
| 20260906085007 | 78 | 213 | 0.0 | 1.7 | 0.00 | 0.00 | 0.00 | 81 | 1014.8 |
| 20260906084513 | 78 | 121 | 0.0 | 1.7 | 0.00 | 0.00 | 0.00 | 81 | 1014.8 |
| 20260906084007 | 78 | 121 | 0.0 | 1.7 | 0.00 | 0.00 | 0.00 | 81 | 1014.7 |
| 20260906083504 | 78 | 121 | 0.0 | 1.7 | 0.00 | 0.00 | 0.00 | 81 | 1014.7 |
| 20260906083018 | 78 | 121 | 0.0 | 1.7 | 0.00 | 0.00 | 0.00 | 80 | 1014.7 |
| 20260906082505 | 78 | 128 | 0.0 | 1.7 | 0.00 | 0.00 | 0.00 | 80 | 1014.6 |
| 20260906082005 | 78 | 128 | 0.0 | 1.7 | 0.00 | 0.00 | 0.00 | 80 | 1014.6 |
| 20260906081520 | 78 | 136 | 0.0 | 2.6 | 0.00 | 0.00 | 0.00 | 80 | 1014.5 |
| 20260906081007 | 79 | 136 | 0.0 | 2.6 | 0.00 | 0.00 | 0.00 | 80 | 1014.6 |
| 20260906080507 | 79 | 91 | 0.0 | 1.7 | 0.00 | 0.00 | 0.00 | 79 | 1014.6 |
| 20260906080028 | 78 | 190 | 0.9 | 2.6 | 0.00 | 0.00 | 0.00 | 80 | 1014.6 |
| 20260906075507 | 79 | 232 | 0.0 | 2.6 | 0.00 | 0.00 | 0.00 | 80 | 1014.6 |
| 20260906075003 | 79 | 209 | 0.0 | 1.7 | 0.00 | 0.00 | 0.00 | 79 | 1014.4 |
| 20260906074512 | 79 | 151 | 0.0 | 2.6 | 0.00 | 0.00 | 0.00 | 79 | 1014.4 |
| 20260906074005 | 79 | 82 | 0.0 | 2.6 | 0.00 | 0.00 | 0.00 | 79 | 1014.4 |
| 20260906073507 | 79 | 86 | 0.0 | 1.7 | 0.00 | 0.00 | 0.00 | 79 | 1014.4 |
| 20260906073008 | 79 | 60 | 0.0 | 2.6 | 0.00 | 0.00 | 0.00 | 79 | 1014.4 |
| 20260906072512 | 79 | 60 | 0.0 | 2.6 | 0.00 | 0.00 | 0.00 | 79 | 1014.4 |
| 20260906072014 | 79 | 240 | 0.0 | 2.6 | 0.00 | 0.00 | 0.00 | 79 | 1014.4 |
| 20260906071511 | 79 | 240 | 0.0 | 2.6 | 0.00 | 0.00 | 0.00 | 79 | 1014.4 |
| 20260906071009 | 79 | 245 | 0.0 | 1.7 | 0.00 | 0.00 | 0.00 | 79 | 1014.6 |
| 20260906070511 | 79 | 178 | 0.0 | 1.7 | 0.00 | 0.00 | 0.00 | 79 | 1014.6 |
| 20260906070007 | 79 | 144 | 0.0 | 1.7 | 0.00 | 0.00 | 0.00 | 78 | 1014.6 |
| 20260906065510 | 80 | 200 | 0.0 | 1.7 | 0.00 | 0.00 | 0.00 | 78 | 1014.7 |
| 20260906065011 | 80 | 200 | 0.0 | 1.7 | 0.00 | 0.00 | 0.00 | 77 | 1014.7 |
| 20260906064523 | 80 | 197 | 0.0 | 1.7 | 0.00 | 0.00 | 0.00 | 77 | 1014.7 |
| 20260906064006 | 80 | 214 | 0.0 | 2.6 | 0.00 | 0.00 | 0.00 | 77 | 1014.8 |
| 20260906063507 | 80 | 107 | 0.0 | 2.6 | 0.00 | 0.00 | 0.00 | 77 | 1014.8 |
| 20260906063012 | 80 | 200 | 0.0 | 1.7 | 0.00 | 0.00 | 0.00 | 77 | 1014.9 |
| 20260906062510 | 80 | 200 | 0.0 | 1.7 | 0.00 | 0.00 | 0.00 | 77 | 1014.9 |
| 20260906062006 | 80 | 240 | 0.0 | 1.7 | 0.00 | 0.00 | 0.00 | 77 | 1014.9 |
| 20260906061515 | 80 | 240 | 0.0 | 1.7 | 0.00 | 0.00 | 0.00 | 77 | 1014.9 |
| 20260906061011 | 81 | 211 | 0.0 | 1.7 | 0.00 | 0.00 | 0.00 | 77 | 1014.9 |
| 20260906060517 | 80 | 100 | 0.0 | 1.7 | 0.00 | 0.00 | 0.00 | 77 | 1014.9 |
| 20260906060012 | 81 | 102 | 0.0 | 1.7 | 0.00 | 0.00 | 0.00 | 77 | 1014.8 |
| 20260906055509 | 81 | 103 | 0.9 | 1.7 | 0.00 | 0.00 | 0.00 | 77 | 1014.8 |
| 20260906055016 | 81 | 100 | 0.0 | 2.6 | 0.00 | 0.00 | 0.00 | 77 | 1014.9 |
| 20260906054507 | 81 | 111 | 0.0 | 2.6 | 0.00 | 0.00 | 0.00 | 77 | 1014.9 |
| 20260906054011 | 81 | 100 | 0.0 | 2.6 | 0.00 | 0.00 | 0.00 | 76 | 1014.9 |
| 20260906053514 | 81 | 98 | 0.9 | 2.6 | 0.00 | 0.00 | 0.00 | 76 | 1014.9 |
| 20260906053007 | 81 | 100 | 0.0 | 5.2 | 0.00 | 0.00 | 0.00 | 76 | 1014.8 |
| 20260906052510 | 82 | 99 | 0.9 | 5.2 | 0.00 | 0.00 | 0.00 | 76 | 1014.7 |
| 20260906052010 | 82 | 111 | 0.9 | 5.2 | 0.00 | 0.00 | 0.00 | 76 | 1014.7 |
| 20260906051511 | 82 | 121 | 0.9 | 3.5 | 0.00 | 0.00 | 0.00 | 76 | 1014.7 |
| 20260906051010 | 82 | 109 | 0.9 | 3.5 | 0.00 | 0.00 | 0.00 | 75 | 1014.8 |
| 20260906050511 | 82 | 136 | 0.9 | 3.5 | 0.00 | 0.00 | 0.00 | 75 | 1014.9 |
| 20260906050026 | 82 | 155 | 0.9 | 2.6 | 0.00 | 0.00 | 0.00 | 75 | 1014.9 |
| 20260906045514 | 82 | 109 | 0.0 | 3.5 | 0.00 | 0.00 | 0.00 | 75 | 1014.9 |
| 20260906045009 | 82 | 102 | 0.9 | 3.5 | 0.00 | 0.00 | 0.00 | 74 | 1014.9 |
| 20260906044523 | 82 | 111 | 0.0 | 3.5 | 0.00 | 0.00 | 0.00 | 74 | 1014.9 |
| 20260906044016 | 82 | 103 | 0.9 | 3.5 | 0.00 | 0.00 | 0.00 | 75 | 1014.9 |
| 20260906043508 | 82 | 102 | 0.9 | 3.5 | 0.00 | 0.00 | 0.00 | 74 | 1014.9 |
| 20260906043028 | 82 | 71 | 0.9 | 2.6 | 0.00 | 0.00 | 0.00 | 74 | 1014.9 |
| 20260906042514 | 82 | 91 | 0.9 | 2.6 | 0.00 | 0.00 | 0.00 | 74 | 1015.0 |
| 20260906042016 | 83 | 98 | 0.9 | 2.6 | 0.00 | 0.00 | 0.00 | 74 | 1015.0 |
| 20260906041511 | 83 | 90 | 0.0 | 2.6 | 0.00 | 0.00 | 0.00 | 74 | 1014.9 |
| 20260906041016 | 83 | 76 | 0.9 | 2.6 | 0.00 | 0.00 | 0.00 | 74 | 1015.0 |
| 20260906040513 | 83 | 79 | 0.0 | 3.5 | 0.00 | 0.00 | 0.00 | 74 | 1015.0 |
| 20260906040028 | 83 | 96 | 0.9 | 3.5 | 0.00 | 0.00 | 0.00 | 73 | 1015.0 |
| 20260906035508 | 83 | 94 | 0.9 | 3.5 | 0.00 | 0.00 | 0.00 | 74 | 1015.0 |
| 20260906035014 | 84 | 96 | 0.9 | 3.5 | 0.00 | 0.00 | 0.00 | 73 | 1015.0 |
| 20260906034533 | 84 | 96 | 0.0 | 3.5 | 0.00 | 0.00 | 0.00 | 73 | 1014.9 |
| 20260906034010 | 84 | 111 | 0.0 | 3.5 | 0.00 | 0.00 | 0.00 | 73 | 1014.9 |
| 20260906033513 | 84 | 88 | 0.0 | 3.5 | 0.00 | 0.00 | 0.00 | 73 | 1014.9 |
| 20260906033025 | 84 | 88 | 0.9 | 3.5 | 0.00 | 0.00 | 0.00 | 73 | 1014.8 |
| 20260906032516 | 84 | 96 | 1.7 | 2.6 | 0.00 | 0.00 | 0.00 | 73 | 1014.7 |
| 20260906032011 | 84 | 108 | 0.9 | 2.6 | 0.00 | 0.00 | 0.00 | 73 | 1014.7 |
| 20260906031519 | 84 | 93 | 0.0 | 2.6 | 0.00 | 0.00 | 0.00 | 73 | 1014.7 |
| 20260906031016 | 84 | 102 | 0.0 | 2.6 | 0.00 | 0.00 | 0.00 | 72 | 1014.7 |
| 20260906030515 | 85 | 96 | 0.9 | 2.6 | 0.00 | 0.00 | 0.00 | 72 | 1014.7 |
| 20260906030020 | 85 | 226 | 0.0 | 3.5 | 0.00 | 0.00 | 0.00 | 72 | 1014.4 |
| 20260906025513 | 85 | 128 | 1.7 | 3.5 | 0.00 | 0.00 | 0.00 | 72 | 1014.2 |
| 20260906025016 | 85 | 87 | 0.0 | 1.7 | 0.00 | 0.00 | 0.00 | 72 | 1014.2 |
| 20260906024519 | 85 | 101 | 0.0 | 1.7 | 0.00 | 0.00 | 0.00 | 72 | 1014.2 |
| 20260906024003 | 85 | 129 | 0.0 | 1.7 | 0.00 | 0.00 | 0.00 | 72 | 1014.1 |
| 20260906023503 | 85 | 137 | 0.0 | 2.6 | 0.00 | 0.00 | 0.00 | 72 | 1014.0 |
| 20260906023002 | 85 | 121 | 0.0 | 3.5 | 0.00 | 0.00 | 0.00 | 72 | 1014.0 |
| 20260906022503 | 85 | 109 | 0.0 | 3.5 | 0.00 | 0.00 | 0.00 | 71 | 1014.1 |
| 20260906022003 | 85 | 110 | 0.0 | 2.6 | 0.00 | 0.00 | 0.00 | 71 | 1014.0 |
| 20260906021504 | 86 | 96 | 0.0 | 3.5 | 0.00 | 0.00 | 0.00 | 71 | 1013.9 |
| 20260906021002 | 85 | 102 | 0.9 | 3.5 | 0.00 | 0.00 | 0.00 | 71 | 1013.8 |
| 20260906020508 | 86 | 106 | 0.0 | 3.5 | 0.00 | 0.00 | 0.00 | 71 | 1013.8 |
| 20260906020002 | 86 | 100 | 1.7 | 3.5 | 0.00 | 0.00 | 0.00 | 70 | 1013.7 |
| 20260906015502 | 86 | 119 | 0.0 | 1.7 | 0.00 | 0.00 | 0.00 | 71 | 1013.5 |
| 20260906015003 | 86 | 109 | 0.0 | 1.7 | 0.00 | 0.00 | 0.00 | 71 | 1013.4 |
| 20260906014505 | 86 | 99 | 0.0 | 1.7 | 0.00 | 0.00 | 0.00 | 71 | 1013.4 |
| 20260906014003 | 86 | 119 | 0.0 | 3.5 | 0.00 | 0.00 | 0.00 | 70 | 1013.4 |
| 20260906013502 | 86 | 118 | 1.7 | 3.5 | 0.00 | 0.00 | 0.00 | 70 | 1013.3 |
| 20260906013005 | 86 | 107 | 0.9 | 2.6 | 0.00 | 0.00 | 0.00 | 70 | 1013.2 |
| 20260906012503 | 86 | 103 | 0.0 | 1.7 | 0.00 | 0.00 | 0.00 | 70 | 1013.2 |
| 20260906012002 | 86 | 103 | 0.9 | 1.7 | 0.00 | 0.00 | 0.00 | 70 | 1013.2 |
| 20260906011503 | 87 | 107 | 0.0 | 2.6 | 0.00 | 0.00 | 0.00 | 69 | 1013.1 |
| 20260906011004 | 87 | 68 | 0.0 | 2.6 | 0.00 | 0.00 | 0.00 | 68 | 1013.1 |
| 20260906010503 | 87 | 111 | 0.0 | 5.2 | 0.00 | 0.00 | 0.00 | 68 | 1013.0 |
| 20260906010002 | 87 | 111 | 0.9 | 5.2 | 0.00 | 0.00 | 0.00 | 68 | 1013.0 |
| 20260906005503 | 87 | 76 | 2.6 | 5.2 | 0.00 | 0.00 | 0.00 | 68 | 1012.9 |
| 20260906005003 | 88 | 103 | 0.0 | 5.2 | 0.00 | 0.00 | 0.00 | 67 | 1012.9 |
| 20260906004504 | 88 | 109 | 1.7 | 3.5 | 0.00 | 0.00 | 0.00 | 67 | 1013.0 |
| 20260906004004 | 88 | 100 | 0.0 | 6.1 | 0.00 | 0.00 | 0.00 | 67 | 1013.0 |
| 20260906003503 | 89 | 117 | 0.9 | 6.1 | 0.00 | 0.00 | 0.00 | 65 | 1012.9 |
| 20260906003002 | 89 | 67 | 1.7 | 5.2 | 0.00 | 0.00 | 0.00 | 65 | 1012.9 |
| 20260906002501 | 89 | 113 | 1.7 | 5.2 | 0.00 | 0.00 | 0.00 | 65 | 1012.8 |
| 20260906002002 | 89 | 103 | 1.7 | 5.2 | 0.00 | 0.00 | 0.00 | 65 | 1012.7 |
| 20260906001503 | 89 | 96 | 0.9 | 7.0 | 0.00 | 0.00 | 0.00 | 64 | 1012.5 |
| 20260906001003 | 89 | 112 | 1.7 | 7.0 | 0.00 | 0.00 | 0.00 | 64 | 1012.5 |
| 20260906000505 | 90 | 116 | 1.7 | 6.1 | 0.00 | 0.00 | 0.00 | 64 | 1012.5 |
| 20260906000004 | 90 | 128 | 1.7 | 6.1 | 0.00 | 0.00 | 0.00 | 64 | 1012.6 |
| 20260905235502 | 90 | 105 | 0.9 | 6.1 | 0.00 | 0.00 | 0.00 | 64 | 1012.6 |
| 20260905235004 | 90 | 146 | 0.9 | 3.5 | 0.00 | 0.00 | 0.00 | 64 | 1012.6 |
| 20260905234506 | 90 | 119 | 0.9 | 4.3 | 0.00 | 0.00 | 0.00 | 63 | 1012.7 |
| 20260905234003 | 90 | 201 | 0.9 | 4.3 | 0.00 | 0.00 | 0.00 | 62 | 1012.8 |
| 20260905233503 | 90 | 96 | 0.9 | 4.3 | 0.00 | 0.00 | 0.00 | 62 | 1012.6 |
| 20260905233005 | 91 | 84 | 0.9 | 6.1 | 0.00 | 0.00 | 0.00 | 63 | 1012.6 |
| 20260905232503 | 91 | 83 | 0.9 | 6.1 | 0.00 | 0.00 | 0.00 | 1012.7 | |
| 20260905232004 | 91 | 103 | 1.7 | 7.8 | 0.00 | 0.00 | 0.00 | 1012.7 | |
| 20260905231503 | 91 | 36 | 0.9 | 7.8 | 0.00 | 0.00 | 0.00 | 1012.6 | |
| 20260905231002 | 91 | 74 | 0.9 | 6.1 | 0.00 | 0.00 | 0.00 | 60 | 1012.7 |
| 20260905230508 | 91 | 223 | 0.9 | 3.5 | 0.00 | 0.00 | 0.00 | 60 | 1012.7 |
| 20260905230007 | 92 | 94 | 0.9 | 2.6 | 0.00 | 0.00 | 0.00 | 60 | 1012.7 |
| 20260905225504 | 92 | 117 | 0.9 | 4.3 | 0.00 | 0.00 | 0.00 | 59 | 1012.7 |
| 20260905225005 | 92 | 110 | 1.7 | 4.3 | 0.00 | 0.00 | 0.00 | 60 | 1012.7 |
| 20260905224523 | 92 | 115 | 0.9 | 5.2 | 0.00 | 0.00 | 0.00 | 59 | 1012.7 |
| 20260905224009 | 92 | 142 | 0.9 | 5.2 | 0.00 | 0.00 | 0.00 | 59 | 1012.6 |
| 20260905223511 | 92 | 137 | 0.9 | 5.2 | 0.00 | 0.00 | 0.00 | 61 | 1012.5 |
| 20260905223007 | 92 | 90 | 1.7 | 7.0 | 0.00 | 0.00 | 0.00 | 59 | 1012.5 |
| 20260905222509 | 92 | 205 | 1.7 | 7.0 | 0.00 | 0.00 | 0.00 | 58 | 1012.3 |
| 20260905222003 | 92 | 156 | 0.9 | 7.0 | 0.00 | 0.00 | 0.00 | 59 | 1012.3 |
| 20260905221501 | 92 | 212 | 0.9 | 7.0 | 0.00 | 0.00 | 0.00 | 59 | 1012.2 |
| 20260905221001 | 92 | 246 | 0.0 | 7.0 | 0.00 | 0.00 | 0.00 | 58 | 1012.2 |
| 20260905220505 | 92 | 216 | 0.0 | 5.2 | 0.00 | 0.00 | 0.00 | 58 | 1012.2 |
| 20260905220006 | 92 | 61 | 1.7 | 5.2 | 0.00 | 0.00 | 0.00 | 58 | 1012.1 |
| 20260905215506 | 92 | 103 | 1.7 | 7.0 | 0.00 | 0.00 | 0.00 | 57 | 1012.2 |
| 20260905215006 | 92 | 157 | 1.7 | 7.8 | 0.00 | 0.00 | 0.00 | 57 | 1012.3 |
| 20260905214503 | 92 | 183 | 1.7 | 7.8 | 0.00 | 0.00 | 0.00 | 57 | 1012.3 |
| 20260905214003 | 92 | 129 | 1.7 | 7.8 | 0.00 | 0.00 | 0.00 | 57 | 1012.4 |
| 20260905213507 | 92 | 144 | 2.6 | 7.8 | 0.00 | 0.00 | 0.00 | 57 | 1012.5 |
| 20260905213003 | 92 | 109 | 2.6 | 7.0 | 0.00 | 0.00 | 0.00 | 56 | 1012.5 |
| 20260905212504 | 92 | 94 | 0.9 | 6.1 | 0.00 | 0.00 | 0.00 | 57 | 1012.6 |
| 20260905212008 | 92 | 127 | 2.6 | 6.1 | 0.00 | 0.00 | 0.00 | 56 | 1012.6 |
| 20260905211517 | 92 | 32 | 0.9 | 9.6 | 0.00 | 0.00 | 0.00 | 57 | 1012.7 |
| 20260905211004 | 91 | 96 | 1.7 | 9.6 | 0.00 | 0.00 | 0.00 | 59 | 1012.9 |
| 20260905210504 | 92 | 108 | 2.6 | 8.7 | 0.00 | 0.00 | 0.00 | 59 | 1013.0 |
| 20260905210009 | 92 | 98 | 2.6 | 8.7 | 0.00 | 0.00 | 0.00 | 58 | 1013.2 |
| 20260905205505 | 91 | 82 | 2.6 | 8.7 | 0.00 | 0.00 | 0.00 | 58 | 1013.2 |
| 20260905205002 | 92 | 115 | 3.5 | 8.7 | 0.00 | 0.00 | 0.00 | 57 | 1013.3 |
| 20260905204506 | 92 | 81 | 1.7 | 6.1 | 0.00 | 0.00 | 0.00 | 57 | 1013.4 |
| 20260905204007 | 92 | 132 | 0.9 | 6.1 | 0.00 | 0.00 | 0.00 | 55 | 1013.6 |
| 20260905203506 | 92 | 105 | 2.6 | 6.1 | 0.00 | 0.00 | 0.00 | 54 | 1013.8 |
| 20260905203004 | 92 | 90 | 1.7 | 7.8 | 0.00 | 0.00 | 0.00 | 54 | 1013.8 |
| 20260905202505 | 92 | 65 | 1.7 | 8.7 | 0.00 | 0.00 | 0.00 | 54 | 1013.9 |
| 20260905202015 | 92 | 90 | 0.9 | 8.7 | 0.00 | 0.00 | 0.00 | 56 | 1014.0 |
| 20260905201504 | 92 | 84 | 1.7 | 7.0 | 0.00 | 0.00 | 0.00 | 55 | 1014.0 |
| 20260905201002 | 92 | 107 | 2.6 | 10.4 | 0.00 | 0.00 | 0.00 | 56 | 1014.2 |
| 20260905200511 | 91 | 107 | 2.6 | 11.3 | 0.00 | 0.00 | 0.00 | 57 | 1014.4 |
| 20260905200023 | 91 | 126 | 1.7 | 11.3 | 0.00 | 0.00 | 0.00 | 1014.7 | |
| 20260905195503 | 92 | 94 | 4.3 | 11.3 | 0.00 | 0.00 | 0.00 | 56 | 1014.7 |
| 20260905195004 | 91 | 107 | 2.6 | 9.6 | 0.00 | 0.00 | 0.00 | 56 | 1014.9 |
| 20260905194505 | 91 | 80 | 2.6 | 8.7 | 0.00 | 0.00 | 0.00 | 56 | 1014.9 |
| 20260905194002 | 92 | 59 | 0.0 | 8.7 | 0.00 | 0.00 | 0.00 | 58 | 1014.9 |
| 20260905193511 | 91 | 111 | 1.7 | 8.7 | 0.00 | 0.00 | 0.00 | 59 | 1014.9 |
| 20260905193004 | 91 | 203 | 0.9 | 7.0 | 0.00 | 0.00 | 0.00 | 60 | 1014.9 |
| 20260905192509 | 91 | 94 | 2.6 | 8.7 | 0.00 | 0.00 | 0.00 | 58 | 1015.0 |
| 20260905192007 | 91 | 130 | 2.6 | 10.4 | 0.00 | 0.00 | 0.00 | 58 | 1015.1 |
| 20260905191513 | 91 | 107 | 4.3 | 8.7 | 0.00 | 0.00 | 0.00 | 58 | 1015.0 |
| 20260905191010 | 91 | 105 | 2.6 | 7.0 | 0.00 | 0.00 | 0.00 | 59 | 1015.2 |
| 20260905190502 | 91 | 71 | 0.9 | 9.6 | 0.00 | 0.00 | 0.00 | 63 | 1015.4 |
| 20260905190012 | 90 | 134 | 3.5 | 9.6 | 0.00 | 0.00 | 0.00 | 61 | 1015.4 |
| 20260905185510 | 90 | 114 | 2.6 | 10.4 | 0.00 | 0.00 | 0.00 | 59 | 1015.5 |
| 20260905185017 | 90 | 100 | 3.5 | 11.3 | 0.00 | 0.00 | 0.00 | 60 | 1015.7 |
| 20260905184504 | 90 | 109 | 3.5 | 11.3 | 0.00 | 0.00 | 0.00 | 61 | 1015.9 |